TimeCDT,TemperatureF,Dew PointF,Humidity,Sea Level PressureIn,VisibilityMPH,Wind Direction,Wind SpeedMPH,Gust SpeedMPH,PrecipitationIn,Events,Conditions,WindDirDegrees,DateUTC
12:15 AM,44.6,39.2,81,29.94,10.0,SE,5.8,-,N/A,,Clear,140,2012-10-16 05:15:00
12:35 AM,46.4,41.0,81,29.94,10.0,SSE,5.8,-,N/A,,Clear,160,2012-10-16 05:35:00
12:55 AM,46.4,41.0,81,29.93,10.0,SSE,6.9,-,N/A,,Clear,160,2012-10-16 05:55:00
1:15 AM,46.4,39.2,76,29.93,10.0,SSE,5.8,-,N/A,,Clear,160,2012-10-16 06:15:00
1:35 AM,46.4,39.2,76,29.93,10.0,SSE,5.8,-,N/A,,Clear,150,2012-10-16 06:35:00
1:55 AM,46.4,39.2,76,29.92,10.0,SE,6.9,-,N/A,,Clear,140,2012-10-16 06:55:00
2:15 AM,46.4,39.2,76,29.92,10.0,SSE,5.8,-,N/A,,Clear,160,2012-10-16 07:15:00
2:35 AM,44.6,39.2,81,29.91,10.0,SSE,5.8,-,N/A,,Clear,160,2012-10-16 07:35:00
2:55 AM,44.6,37.4,76,29.89,10.0,SE,5.8,-,N/A,,Clear,140,2012-10-16 07:55:00
3:15 AM,44.6,39.2,81,29.89,10.0,SSE,6.9,-,N/A,,Clear,150,2012-10-16 08:15:00
3:35 AM,44.6,39.2,81,29.88,10.0,SE,6.9,-,N/A,,Clear,130,2012-10-16 08:35:00
3:55 AM,44.6,37.4,76,29.87,10.0,East,5.8,-,N/A,,Clear,100,2012-10-16 08:55:00
4:15 AM,44.6,39.2,81,29.87,10.0,SE,9.2,-,N/A,,Clear,130,2012-10-16 09:15:00
4:35 AM,44.6,39.2,81,29.85,10.0,SE,9.2,-,N/A,,Clear,130,2012-10-16 09:35:00
4:55 AM,44.6,39.2,81,29.85,10.0,SE,8.1,-,N/A,,Clear,130,2012-10-16 09:55:00
5:15 AM,44.6,39.2,81,29.84,10.0,SSE,9.2,-,N/A,,Clear,150,2012-10-16 10:15:00
5:35 AM,44.6,39.2,81,29.84,10.0,SSE,8.1,-,N/A,,Clear,150,2012-10-16 10:35:00
5:55 AM,44.6,39.2,81,29.84,10.0,SE,8.1,-,N/A,,Clear,140,2012-10-16 10:55:00
7:15 AM,-9999,-9999,N/A,29.80,-9999.0,SE,11.5,-,N/A,,Unknown,140,2012-10-16 12:15:00
7:35 AM,46.4,39.2,76,29.79,10.0,SE,12.7,-,N/A,,Clear,140,2012-10-16 12:35:00
7:55 AM,48.2,41.0,76,29.79,10.0,SE,15.0,-,N/A,,Clear,140,2012-10-16 12:55:00
9:55 AM,55.4,44.6,67,29.74,10.0,SSE,18.4,-,N/A,,Unknown,150,2012-10-16 14:55:00
10:15 AM,57.2,44.6,63,29.73,10.0,SSE,17.3,24.2,N/A,,Clear,150,2012-10-16 15:15:00
10:35 AM,59.0,44.6,59,29.72,10.0,SSE,18.4,26.5,N/A,,Clear,160,2012-10-16 15:35:00
10:55 AM,60.8,46.4,59,29.71,10.0,SSE,25.3,29.9,N/A,,Clear,160,2012-10-16 15:55:00
11:15 AM,62.6,46.4,55,29.70,9.0,SSE,24.2,28.8,N/A,,Clear,160,2012-10-16 16:15:00
11:35 AM,62.6,46.4,55,29.69,10.0,SSE,18.4,-,N/A,,Clear,160,2012-10-16 16:35:00
11:55 AM,64.4,46.4,52,29.68,10.0,SSE,24.2,27.6,N/A,,Clear,150,2012-10-16 16:55:00
12:15 PM,66.2,48.2,52,29.65,10.0,SSE,17.3,-,N/A,,Clear,160,2012-10-16 17:15:00
12:35 PM,66.2,48.2,52,29.64,10.0,South,21.9,26.5,N/A,,Clear,170,2012-10-16 17:35:00
12:55 PM,68.0,48.2,49,29.62,10.0,South,18.4,-,N/A,,Clear,170,2012-10-16 17:55:00
1:15 PM,69.8,48.2,46,29.61,10.0,South,17.3,28.8,N/A,,Clear,180,2012-10-16 18:15:00
1:35 PM,69.8,50.0,49,29.61,10.0,South,20.7,24.2,N/A,,Clear,190,2012-10-16 18:35:00
1:55 PM,69.8,48.2,46,29.58,10.0,South,18.4,23.0,N/A,,Clear,180,2012-10-16 18:55:00
2:15 PM,69.8,48.2,46,29.58,10.0,South,20.7,26.5,N/A,,Clear,190,2012-10-16 19:15:00
2:35 PM,71.6,50.0,46,29.57,10.0,South,17.3,23.0,N/A,,Clear,190,2012-10-16 19:35:00
2:55 PM,71.6,50.0,46,29.56,10.0,South,18.4,-,N/A,,Clear,190,2012-10-16 19:55:00
3:15 PM,71.6,48.2,43,29.54,10.0,SSW,16.1,23.0,N/A,,Clear,200,2012-10-16 20:15:00
3:35 PM,73.4,50.0,44,29.53,10.0,South,18.4,23.0,N/A,,Clear,190,2012-10-16 20:35:00
3:55 PM,73.4,51.8,47,29.53,10.0,South,12.7,19.6,N/A,,Clear,190,2012-10-16 20:55:00
4:15 PM,73.4,51.8,47,29.52,10.0,South,12.7,-,N/A,,Clear,180,2012-10-16 21:15:00
4:35 PM,73.4,51.8,47,29.51,10.0,South,9.2,-,N/A,,Clear,190,2012-10-16 21:35:00
4:55 PM,73.4,51.8,47,29.50,10.0,South,9.2,-,N/A,,Clear,190,2012-10-16 21:55:00
5:15 PM,71.6,51.8,50,29.51,10.0,South,5.8,-,N/A,,Clear,170,2012-10-16 22:15:00
5:35 PM,71.6,51.8,50,29.50,10.0,SSE,9.2,-,N/A,,Clear,160,2012-10-16 22:35:00
5:55 PM,69.8,51.8,53,29.50,10.0,SSE,9.2,-,N/A,,Clear,160,2012-10-16 22:55:00
6:15 PM,69.8,51.8,53,29.49,10.0,SSE,10.4,-,N/A,,Clear,160,2012-10-16 23:15:00
6:35 PM,69.8,51.8,53,29.49,10.0,SSE,10.4,-,N/A,,Clear,160,2012-10-16 23:35:00
6:55 PM,66.2,51.8,60,29.49,10.0,SSE,9.2,-,N/A,,Clear,160,2012-10-16 23:55:00
7:15 PM,66.2,51.8,60,29.49,10.0,SSE,10.4,-,N/A,,Clear,160,2012-10-17 00:15:00
7:35 PM,64.4,51.8,64,29.49,10.0,South,9.2,-,N/A,,Clear,170,2012-10-17 00:35:00
7:55 PM,64.4,50.0,59,29.49,10.0,South,10.4,-,N/A,,Clear,170,2012-10-17 00:55:00
8:15 PM,64.4,50.0,59,29.50,10.0,South,10.4,-,N/A,,Clear,180,2012-10-17 01:15:00
8:35 PM,64.4,48.2,56,29.50,10.0,South,11.5,-,N/A,,Clear,190,2012-10-17 01:35:00
8:55 PM,64.4,48.2,56,29.50,10.0,South,11.5,-,N/A,,Scattered Clouds,190,2012-10-17 01:55:00
9:15 PM,64.4,48.2,56,29.50,10.0,South,12.7,-,N/A,,Partly Cloudy,190,2012-10-17 02:15:00
9:35 PM,64.4,46.4,52,29.50,10.0,South,12.7,-,N/A,,Clear,190,2012-10-17 02:35:00
9:55 PM,64.4,46.4,52,29.50,10.0,South,12.7,-,N/A,,Clear,190,2012-10-17 02:55:00
10:15 PM,64.4,46.4,52,29.51,10.0,SSW,12.7,-,N/A,,Clear,200,2012-10-17 03:15:00
10:35 PM,62.6,48.2,59,29.51,10.0,SSW,12.7,-,N/A,,Clear,200,2012-10-17 03:35:00
10:55 PM,64.4,46.4,52,29.51,10.0,SSW,13.8,-,N/A,,Clear,200,2012-10-17 03:55:00
11:15 PM,64.4,46.4,52,29.51,10.0,SSW,12.7,-,N/A,,Clear,210,2012-10-17 04:15:00
11:35 PM,64.4,46.4,52,29.50,10.0,SSW,12.7,-,N/A,,Clear,210,2012-10-17 04:35:00
11:55 PM,64.4,46.4,52,29.51,10.0,SW,12.7,-,N/A,,Clear,220,2012-10-17 04:55:00